Home > Weather > Resolute Bay > Past weeks

Flag for Canada Weather for the Past 2 Weeks in Resolute Bay, Nunavut, Canada

Now
-33 °F

Snow flurries. Clear.


Feels Like: -57 °F
Forecast: -29 / -21 °F
Wind: 10 mph from Northwest

Location: Resolute

Current Time: Feb 8, 2016 at 10:49:02 PM

Latest Report: Feb 8, 2016 at 9:00 PM


Visibility: 15 mi

Pressure: 30.09 "Hg

Humidity: 74%

Dew point: -38 °F

Location of Resolute BayLocation

Historic Weather in Resolute Bay — Graph

°F

Resolute Bay Temperature Yesterday

Maximum temperature yesterday: -29 °F (at 7:00 PM)
Minimum temperature yesterday: -36 °F (at 1:00 PM)
Average temperature yesterday: -33 °F

High & Low Weather Summary for the Past Weeks

 TemperatureHumidityPressure
High-6 °F (Feb 2, 1:00 AM)84% (Jan 31, 11:00 AM)30.17 "Hg (Jan 31, 11:00 AM)
Low-40 °F (Jan 24, 9:00 PM)38% (Feb 7, 6:00 PM)29.37 "Hg (Jan 26, 7:00 PM)
Average-23 °F73%29.86 "Hg
* Reported Jan 24 9:00 PM — Feb 8 9:00 PM, Resolute Bay, Weather by CustomWeather, © 2016

Note: Actual official high and low records may vary slightly from our data, if they occured in-between our weather recording intervals... More about our weather records

Advertising

Resolute Bay Weather History for the Previous 24 Hours

 ConditionsComfort  
Time TempWeatherWind HumidityBarometerVisibility
9:00 PM
Mon, Feb 8
-33 °FSnow flurries. Clear.10 mph74%30.09 "Hg15 mi
8:00 PM-33 °FSnow flurries. Ice fog.8 mph74%30.09 "Hg3 mi
7:00 PM-29 °FSnow flurries. Clear.12 mph67%30.09 "Hg15 mi
6:00 PM-27 °FSnow flurries. Fog.9 mph67%30.08 "Hg15 mi
5:00 PM-27 °FSnow flurries. Fog.23 mph74%30.07 "Hg8 mi
4:00 PM-29 °FSnow flurries. Ice fog.9 mph74%30.06 "Hg4 mi
3:00 PM-29 °FIce fog.13 mph67%30.04 "Hg2 mi
2:00 PM-29 °FIce fog.18 mph74%30.04 "Hg2 mi
1:00 PM-31 °FIce fog.9 mph67%30.03 "Hg2 mi
12:45 PM-31 °FIce fog.7 mph74%30.02 "Hg1 mi
12:00 PM-31 °FIce fog.7 mph67%30.02 "Hg2 mi
11:00 AM-31 °FIce fog.13 mph74%30.01 "Hg2 mi
10:00 AM-31 °FSnow flurries. Ice fog.15 mph74%30.00 "Hg2 mi
9:00 AM-31 °FSnow flurries. Ice fog.16 mph74%29.99 "Hg2 mi
8:00 AM-31 °FSnow flurries. Passing clouds.10 mph74%29.99 "Hg15 mi
7:00 AM-29 °FSnow flurries. Passing clouds.17 mph67%29.98 "Hg15 mi
6:00 AM-29 °FSnow flurries. Clear.17 mph74%29.98 "Hg15 mi
5:00 AM-29 °FSnow flurries. Clear.20 mph74%29.97 "Hg15 mi
4:00 AM-29 °FSnow flurries. Clear.17 mph74%29.98 "Hg15 mi
3:00 AM-29 °FSnow flurries. Passing clouds.15 mph74%29.98 "Hg15 mi
2:00 AM-29 °FSnow flurries. Passing clouds.14 mph74%29.99 "Hg15 mi
1:00 AM-29 °FSnow flurries. Passing clouds.15 mph74%29.99 "Hg15 mi
12:00 AM-29 °FSnow flurries. Passing clouds.16 mph67%29.97 "Hg15 mi
11:00 PM
Sun, Feb 7
-29 °FSnow flurries. Passing clouds.15 mph67%29.98 "Hg15 mi
10:00 PM-31 °FSnow flurries. Passing clouds.9 mph67%29.99 "Hg15 mi
Weather by CustomWeather, © 2016

See weather overviewHow to use our weather pages